This is the latest recevied weather packets stored in our database for station/object KBTL-WX. If no packets are shown the sender has not sent any weather packets the latest 10 day(s).
| Time | Temp. | Humidity | Pressure | Rain* | Wind** | Luminosity | Snow |
|---|---|---|---|---|---|---|---|
| 1777667430 | 7.78° C | 55% | 983.1 hPa | 0 mm | - | - | - |
| 1777666513 | 7.78° C | 55% | 983.1 hPa | 0 mm | - | - | - |
| 1777665637 | 7.22° C | 55% | 983.1 hPa | 0 mm | - | - | - |
| 1777664713 | 7.22° C | 58% | 982.8 hPa | 0 mm | - | - | - |
| 1777663830 | 7.22° C | 58% | 982.8 hPa | 0 mm | - | - | - |
| 1777662914 | 7.22° C | 58% | 982.8 hPa | 0 mm | - | - | - |
| 1777662032 | 7.78° C | 58% | 982.8 hPa | 0 mm | - | - | - |
| 1777661113 | 7.78° C | 58% | 982.2 hPa | 0 mm | - | - | - |
| 1777660228 | 7.78° C | 55% | 982.5 hPa | 0 mm | - | - | - |
| 1777659314 | 7.78° C | 55% | 982.6 hPa | 0 mm | - | - | - |
| 1777658436 | 7.78° C | 55% | 982.6 hPa | 0 mm | - | - | - |
| 1777657513 | 7.78° C | 54% | 983.3 hPa | 0 mm | - | - | - |
| 1777656628 | 7.78° C | 57% | 982.8 hPa | 0 mm | - | - | - |
| 1777655713 | 7.78° C | 57% | 982.8 hPa | 0 mm | - | - | - |
| 1777654837 | 7.78° C | 57% | 982.8 hPa | 0 mm | - | - | - |
| 1777653912 | 7.78° C | 58% | 981.3 hPa | 0 mm | - | - | - |
| 1777653032 | 7.78° C | 67% | 981.8 hPa | 0 mm | - | - | - |
| 1777652113 | 6.67° C | 67% | 981.8 hPa | 0 mm | - | - | - |
| 1777651240 | 6.67° C | 67% | 981.8 hPa | 0 mm | - | - | - |
| 1777650313 | 6.67° C | 69% | 981.9 hPa | 0 mm | - | - | - |
| 1777649427 | 6.67° C | 67% | 982.4 hPa | 0 mm | - | - | - |
| 1777648513 | 7.22° C | 67% | 982.4 hPa | 0 mm | - | - | - |
| 1777647638 | 6.67° C | 67% | 982.4 hPa | 0 mm | - | - | - |
| 1777646713 | 6.67° C | 75% | 981.4 hPa | 0 mm | - | - | - |
| 1777645831 | 6.67° C | 74% | 982.2 hPa | 0 mm | - | - | - |
* Rain latest hour (hover to see other rain measurements)
** Current wind speed in m/s (hover to see current wind gust speed)